When you browse on this site, cookies collect data to enhance your experience and personalize the content and advertising you see.
Visit our Privacy Policy to learn more. By continuing to use the site, you agree to this use of cookies and data.
  • In Hungary
  • List of Countries
  • For 7 days
  • Water Temperature
  • Satellite Maps
  • Weather Map
  • News
  • Weather Widgets
  • user-avatar
    Login

    Hourly Weather Pecs

    Today, 21 January, Monday

    Time Temperature Precipitation Wind Pressure Humidity
    00:00 0°C° 0 mm 1 mps 745 mmHg 82%
    01:00 -1°C° 0 mm 1 mps 746 mmHg 84%
    02:00 -1°C° 0 mm 1 mps 746 mmHg 84%
    03:00 -1°C° 0 mm 1 mps 746 mmHg 84%
    04:00 -1°C° 0 mm 1 mps 746 mmHg 85%
    05:00 -1°C° 0 mm 1 mps 746 mmHg 83%
    06:00 -1°C° 0 mm 1 mps 746 mmHg 82%
    07:00 -2°C° 0 mm 1 mps 747 mmHg 81%
    08:00 -1°C° 0 mm 1 mps 747 mmHg 74%
    09:00 0°C° 0 mm 1 mps 747 mmHg 67%
    10:00 +1°C° 0 mm 1 mps 747 mmHg 61%
    11:00 +2°C° 0 mm 1 mps 747 mmHg 57%
    12:00 +2°C° 0 mm 1 mps 747 mmHg 53%
    13:00 +3°C° 0 mm 1 mps 747 mmHg 49%
    14:00 +3°C° 0 mm 1 mps 747 mmHg 52%
    15:00 +2°C° 0 mm 1 mps 746 mmHg 56%
    16:00 +2°C° 0 mm 1 mps 746 mmHg 59%
    17:00 +2°C° 0 mm 1 mps 746 mmHg 61%
    18:00 +1°C° 0 mm 1 mps 746 mmHg 63%
    19:00 +1°C° 0 mm 1 mps 745 mmHg 65%
    20:00 -1°C° 0 mm 2 mps 745 mmHg 67%
    21:00 -1°C° 0 mm 2 mps 745 mmHg 68%
    22:00 -2°C° 0 mm 2 mps 745 mmHg 69%
    23:00 -2°C° 0.1 mm 2 mps 745 mmHg 72%

    Tomorrow, 22 January, Tuesday

    Time Temperature Precipitation Wind Pressure Humidity
    00:00 -2°C° 0.1 mm 2 mps 745 mmHg 75%
    01:00 -2°C° 0.1 mm 2 mps 745 mmHg 78%
    02:00 -3°C° 0.2 mm 2 mps 744 mmHg 80%
    03:00 -3°C° 0.2 mm 2 mps 744 mmHg 82%
    04:00 -3°C° 0.2 mm 2 mps 744 mmHg 84%
    05:00 -3°C° 0.1 mm 2 mps 743 mmHg 84%
    06:00 -3°C° 0.1 mm 2 mps 743 mmHg 84%
    07:00 -3°C° 0.1 mm 2 mps 743 mmHg 84%
    08:00 -3°C° 0 mm 2 mps 742 mmHg 82%
    09:00 -2°C° 0 mm 2 mps 742 mmHg 80%
    10:00 -2°C° 0 mm 2 mps 742 mmHg 77%
    11:00 -2°C° 0 mm 3 mps 742 mmHg 77%
    12:00 -1°C° 0 mm 3 mps 741 mmHg 77%
    13:00 -1°C° 0 mm 3 mps 740 mmHg 78%
    14:00 -1°C° 0.1 mm 3 mps 740 mmHg 80%
    15:00 -1°C° 0.1 mm 3 mps 739 mmHg 83%
    16:00 -1°C° 0.1 mm 3 mps 739 mmHg 86%
    17:00 -2°C° 0.1 mm 3 mps 738 mmHg 88%
    18:00 -2°C° 0.1 mm 3 mps 738 mmHg 90%
    19:00 -2°C° 0.1 mm 3 mps 737 mmHg 92%
    20:00 -2°C° 0.1 mm 3 mps 737 mmHg 92%
    21:00 -2°C° 0.1 mm 3 mps 736 mmHg 92%
    22:00 -2°C° 0.1 mm 3 mps 736 mmHg 92%
    23:00 -2°C° 0.2 mm 3 mps 735 mmHg 92%

    Day after tomorrow, 23 January, Wednesday

    Time Temperature Precipitation Wind Pressure Humidity
    00:00 -2°C° 0.2 mm 3 mps 735 mmHg 93%
    01:00 -2°C° 0.2 mm 3 mps 734 mmHg 93%
    02:00 -2°C° 0.5 mm 3 mps 734 mmHg 93%
    03:00 -4°C° 0.5 mm 3 mps 733 mmHg 94%
    04:00 -4°C° 0.5 mm 3 mps 733 mmHg 95%
    05:00 -4°C° 0.2 mm 3 mps 732 mmHg 95%
    06:00 -3°C° 0.2 mm 2 mps 732 mmHg 95%
    07:00 -2°C° 0.2 mm 2 mps 732 mmHg 94%
    08:00 -2°C° 0 mm 2 mps 732 mmHg 94%
    09:00 -2°C° 0 mm 2 mps 732 mmHg 94%
    10:00 -1°C° 0 mm 2 mps 732 mmHg 94%
    11:00 -1°C° 0 mm 3 mps 732 mmHg 93%
    12:00 0°C° 0 mm 3 mps 731 mmHg 92%
    13:00 0°C° 0 mm 3 mps 731 mmHg 91%
    14:00 0°C° 0 mm 3 mps 731 mmHg 92%
    15:00 0°C° 0 mm 3 mps 731 mmHg 93%
    16:00 0°C° 0 mm 3 mps 731 mmHg 93%
    17:00 0°C° 0.2 mm 3 mps 732 mmHg 94%
    18:00 +1°C° 0.2 mm 2 mps 732 mmHg 95%
    19:00 -1°C° 0.2 mm 2 mps 732 mmHg 96%
    20:00 -1°C° 0 mm 2 mps 733 mmHg 96%
    21:00 -1°C° 0 mm 2 mps 733 mmHg 96%
    22:00 -1°C° 0 mm 2 mps 734 mmHg 96%
    23:00 -1°C° 0 mm 2 mps 734 mmHg 96%

    24 January, Thursday

    Time Temperature Precipitation Wind Pressure Humidity
    00:00 -1°C° 0 mm 2 mps 734 mmHg 96%
    01:00 -1°C° 0 mm 2 mps 734 mmHg 96%
    02:00 -1°C° 0 mm 2 mps 734 mmHg 96%
    03:00 -1°C° 0 mm 2 mps 734 mmHg 96%
    04:00 -1°C° 0 mm 2 mps 735 mmHg 96%
    05:00 -1°C° 0 mm 2 mps 735 mmHg 96%
    06:00 -1°C° 0 mm 2 mps 736 mmHg 95%
    07:00 -1°C° 0 mm 2 mps 736 mmHg 95%
    08:00 -1°C° 0 mm 3 mps 736 mmHg 94%
    09:00 -1°C° 0 mm 3 mps 737 mmHg 93%
    10:00 -1°C° 0 mm 3 mps 737 mmHg 92%
    11:00 0°C° 0 mm 3 mps 737 mmHg 90%
    12:00 -1°C° 0 mm 4 mps 737 mmHg 89%
    13:00 0°C° 0 mm 4 mps 737 mmHg 87%
    14:00 -1°C° 0 mm 4 mps 737 mmHg 86%
    15:00 -1°C° 0 mm 4 mps 737 mmHg 86%
    16:00 -1°C° 0 mm 4 mps 737 mmHg 86%
    17:00 -1°C° 0 mm 4 mps 737 mmHg 86%
    18:00 -2°C° 0 mm 4 mps 737 mmHg 87%
    19:00 -2°C° 0 mm 4 mps 738 mmHg 88%
    20:00 -3°C° 0 mm 4 mps 738 mmHg 84%
    21:00 -3°C° 0 mm 4 mps 738 mmHg 81%
    22:00 -3°C° 0 mm 4 mps 738 mmHg 77%
    23:00 -3°C° 0 mm 4 mps 738 mmHg 75%

    25 January, Friday

    Time Temperature Precipitation Wind Pressure Humidity
    00:00 -4°C° 0 mm 5 mps 739 mmHg 73%
    01:00 -5°C° 0 mm 5 mps 739 mmHg 70%
    02:00 -4°C° 0 mm 5 mps 739 mmHg 69%
    03:00 -4°C° 0 mm 5 mps 739 mmHg 68%
    04:00 -4°C° 0 mm 5 mps 739 mmHg 67%
    05:00 -4°C° 0 mm 5 mps 739 mmHg 68%
    06:00 -4°C° 0 mm 5 mps 739 mmHg 69%
    07:00 -4°C° 0 mm 6 mps 739 mmHg 70%
    08:00 -4°C° 0 mm 6 mps 740 mmHg 69%
    09:00 -3°C° 0 mm 6 mps 740 mmHg 69%
    10:00 -3°C° 0 mm 7 mps 740 mmHg 69%
    11:00 -2°C° 0 mm 7 mps 740 mmHg 67%
    12:00 -2°C° 0 mm 6 mps 740 mmHg 66%
    13:00 -1°C° 0 mm 6 mps 740 mmHg 65%
    14:00 -1°C° 0 mm 5 mps 740 mmHg 65%
    15:00 -1°C° 0 mm 5 mps 740 mmHg 64%
    16:00 -2°C° 0 mm 4 mps 740 mmHg 64%
    17:00 -2°C° 0 mm 4 mps 740 mmHg 65%
    18:00 -3°C° 0 mm 4 mps 740 mmHg 65%
    19:00 -3°C° 0 mm 4 mps 741 mmHg 65%
    20:00 -4°C° 0 mm 5 mps 741 mmHg 64%
    21:00 -5°C° 0 mm 5 mps 741 mmHg 64%
    22:00 -5°C° 0 mm 5 mps 741 mmHg 63%
    23:00 -5°C° 0 mm 5 mps 741 mmHg 64%

    26 January, Saturday

    Time Temperature Precipitation Wind Pressure Humidity
    00:00 -5°C° 0 mm 5 mps 741 mmHg 65%
    01:00 -5°C° 0 mm 4 mps 741 mmHg 65%
    02:00 -5°C° 0 mm 4 mps 741 mmHg 66%
    03:00 -5°C° 0 mm 3 mps 741 mmHg 67%
    04:00 -5°C° 0 mm 3 mps 742 mmHg 68%
    05:00 -6°C° 0 mm 3 mps 742 mmHg 68%
    06:00 -5°C° 0 mm 2 mps 742 mmHg 68%
    07:00 -5°C° 0 mm 2 mps 742 mmHg 68%
    08:00 -4°C° 0 mm 2 mps 743 mmHg 64%
    09:00 -3°C° 0 mm 2 mps 743 mmHg 60%
    10:00 -3°C° 0 mm 2 mps 743 mmHg 55%
    11:00 -2°C° 0 mm 2 mps 743 mmHg 52%
    12:00 -1°C° 0 mm 2 mps 742 mmHg 49%
    13:00 +1°C° 0 mm 2 mps 742 mmHg 45%
    14:00 +1°C° 0 mm 2 mps 742 mmHg 49%
    15:00 +1°C° 0 mm 1 mps 742 mmHg 52%
    16:00 +1°C° 0 mm 1 mps 741 mmHg 55%
    17:00 0°C° 0 mm 1 mps 741 mmHg 60%
    18:00 -1°C° 0 mm 1 mps 741 mmHg 64%
    19:00 -1°C° 0 mm 1 mps 741 mmHg 69%
    20:00 -1°C° 0 mm 1 mps 741 mmHg 71%
    21:00 -2°C° 0 mm 1 mps 741 mmHg 74%
    22:00 -2°C° 0 mm 1 mps 741 mmHg 76%
    23:00 -2°C° 0 mm 1 mps 740 mmHg 77%
    Show more